Home   Weather   Kawasaki   Past weeks

Flag for Japan Past Weather in Kawasaki, Japan — Yesterday and Last 2 Weeks

Now
39 °F

Partly cloudy.


Feels Like: 32 °F
Forecast: 36 / 44 °F
Wind: 10 mph from Northwest

Location: Tokyo International Airport

Current Time: Jan 20, 2017 at 4:46:05 am

Latest Report: Jan 20, 2017 at 4:00 am


Visibility: N/A

Pressure: 29.98 "Hg

Humidity: 48%

Dew Point: 21 °F

Location of KawasakiLocation

Past Weather in Kawasaki — Graph

°F

Kawasaki Temperature Yesterday

Maximum temperature yesterday: 52 °F (at 2:30 pm)
Minimum temperature yesterday: 41 °F (at 3:00 am)
Average temperature yesterday: 45 °F

High & Low Weather Summary for the Past Weeks

 TemperatureHumidityPressure
High55 °F (Jan 13, 2:00 pm)100% (Jan 8, 9:00 pm)30.39 "Hg (Jan 8, 9:00 pm)
Low30 °F (Jan 15, 3:00 am)18% (Jan 16, 1:00 pm)29.45 "Hg (Jan 9, 1:00 am)
Average44 °F50%29.89 "Hg
* Reported Jan 5 3:00 am — Jan 20 3:30 am, Kawasaki, Weather by CustomWeather, © 2017

Note: Actual official high and low records may vary slightly from our data, if they occured in-between our weather recording intervals... More about our weather records

Advertising

Kawasaki Weather History for the Previous 24 Hours

Scroll right to see more
 ConditionsComfort  
Time TempWeatherWind HumidityBarometerVisibility
3:30 am
Fri, Jan 20
39 °FPartly cloudy.14 mph48%30.01 "HgN/A
3:00 am39 °FPartly cloudy.14 mph48%30.01 "HgN/A
2:30 am41 °FPassing clouds.13 mph49%30.01 "HgN/A
2:00 am41 °FPassing clouds.10 mph49%30.01 "HgN/A
1:30 am39 °FPassing clouds.10 mph52%30.01 "HgN/A
1:00 am41 °FPassing clouds.12 mph49%30.01 "HgN/A
12:30 am41 °FClear.12 mph49%30.04 "Hg10 mi
12:00 am41 °FPassing clouds.9 mph53%30.04 "HgN/A
11:30 pm
Thu, Jan 19
41 °FClear.8 mph49%30.04 "Hg10 mi
11:00 pm41 °FClear.9 mph53%30.04 "Hg10 mi
10:30 pm41 °FClear.10 mph49%30.04 "Hg10 mi
10:00 pm43 °FClear.13 mph49%30.04 "Hg10 mi
9:30 pm43 °FClear.14 mph53%30.07 "Hg10 mi
9:00 pm43 °FClear.16 mph49%30.07 "Hg10 mi
8:30 pm45 °FClear.15 mph42%30.07 "Hg10 mi
8:00 pm45 °FClear.14 mph37%30.07 "Hg10 mi
7:30 pm45 °FClear.12 mph34%30.07 "Hg10 mi
7:00 pm45 °FClear.12 mph34%30.07 "Hg10 mi
6:30 pm45 °FClear.10 mph37%30.04 "Hg10 mi
6:00 pm46 °FClear.10 mph37%30.04 "Hg10 mi
5:30 pm48 °FPassing clouds.10 mph40%30.04 "HgN/A
5:00 pm48 °FPassing clouds.13 mph43%30.01 "HgN/A
4:30 pm50 °FPassing clouds.13 mph40%30.01 "HgN/A
4:00 pm50 °FPassing clouds.9 mph40%30.01 "HgN/A
3:30 pm52 °FPassing clouds.10 mph38%30.01 "HgN/A
3:00 pm52 °FScattered clouds.8 mph35%30.01 "HgN/A
2:30 pm52 °FBroken clouds.8 mph38%30.01 "HgN/A
2:00 pm50 °FBroken clouds.7 mph37%30.01 "HgN/A
1:30 pm50 °FPartly sunny.10 mph35%30.01 "HgN/A
1:00 pm50 °FPartly sunny.9 mph37%30.01 "HgN/A
12:30 pm50 °FPartly sunny.13 mph37%30.01 "HgN/A
12:00 pm50 °FPartly sunny.10 mph40%30.04 "HgN/A
11:30 am48 °FPartly sunny.15 mph43%30.07 "HgN/A
11:00 am48 °FPartly sunny.18 mph46%30.07 "HgN/A
10:30 am48 °FPartly sunny.10 mph43%30.09 "HgN/A
10:00 am46 °FBroken clouds.12 mph46%30.09 "HgN/A
9:30 am46 °FPartly sunny.12 mph50%30.09 "HgN/A
9:00 am46 °FPartly sunny.13 mph46%30.09 "HgN/A
8:30 am46 °FPartly sunny.13 mph50%30.09 "HgN/A
8:00 am45 °FPartly sunny.12 mph49%30.09 "HgN/A
7:30 am45 °FPartly sunny.7 mph49%30.09 "HgN/A
7:00 am43 °FSunny.8 mph49%30.09 "Hg10 mi
6:30 am43 °FClear.8 mph49%30.09 "Hg10 mi
6:00 am43 °FPassing clouds.8 mph46%30.09 "HgN/A
5:30 am43 °FClear.6 mph49%30.09 "Hg10 mi
5:00 am41 °FClear.6 mph49%30.09 "Hg10 mi
4:30 am43 °FClear.6 mph46%30.09 "Hg10 mi
4:00 am43 °FClear.7 mph46%30.09 "Hg10 mi
Weather by CustomWeather, © 2017

See weather overviewHow to use our weather pages